Location: Gleizolles
(44.4833°N, 6.7667°E)
Time: 23:47:29
(UTC+00:00)

Vanguard 2 Rocket - All Passes

Search period start: 15 June 2024 00:00
Search period end: 25 June 2024 00:00
Orbit: 555 x 3304 km, 32.9° (Epoch: 15 June)

Date Brightness Start Highest point End Pass type
(mag) Time Alt. Az. Time Alt. Az. Time Alt. Az.
15 Jun - 01:13:39 10° S 01:25:41 20° SE 01:36:22 10° ESE visible
15 Jun - 03:24:01 10° SW 03:40:58 39° SSE 03:53:15 10° E daylight
15 Jun - 05:39:57 10° WSW 05:56:16 49° S 06:06:19 10° ESE daylight
15 Jun - 07:57:57 10° W 08:10:10 39° SSW 08:17:33 10° SE daylight
15 Jun - 10:17:32 10° WSW 10:21:51 14° SW 10:25:20 10° SSW daylight
16 Jun - 00:14:39 10° SSE 00:22:01 13° SE 00:29:05 10° ESE visible
16 Jun - 02:20:35 10° SSW 02:36:56 33° SSE 02:50:01 10° E visible
16 Jun - 04:35:00 10° WSW 04:52:34 49° S 05:04:09 10° ESE daylight
16 Jun - 06:52:35 10° WSW 07:07:20 47° SSW 07:16:11 10° ESE daylight
16 Jun - 09:11:19 10° W 09:20:01 24° SW 09:25:54 10° SSE daylight
17 Jun - 01:18:06 10° SSW 01:32:56 27° SE 01:45:59 10° E visible
17 Jun - 03:30:30 10° SW 03:48:33 45° SSE 04:01:35 10° E daylight
17 Jun - 05:47:14 10° WSW 06:04:02 51° S 06:14:26 10° ESE daylight
17 Jun - 08:05:41 10° W 08:17:45 35° SSW 08:25:17 10° SE daylight
18 Jun - 00:17:00 10° S 00:29:05 20° SE 00:40:38 10° E visible
18 Jun - 02:26:39 10° SW 02:44:20 40° SSE 02:58:30 10° E visible
18 Jun - 04:42:05 10° WSW 05:00:15 53° S 05:12:17 10° ESE daylight
18 Jun - 07:00:07 10° W 07:15:00 44° SSW 07:24:04 10° SE daylight
18 Jun - 09:19:44 10° W 09:27:18 19° SW 09:32:48 10° S daylight
18 Jun - 23:18:46 10° SSE 23:25:31 13° SE 23:32:18 10° ESE visible
19 Jun - 01:23:36 10° SSW 01:40:07 34° SSE 01:54:46 10° E visible
19 Jun - 03:37:20 10° WSW 03:56:05 51° S 04:09:44 10° E daylight
19 Jun - 05:54:38 10° WSW 06:11:41 51° SSW 06:22:23 10° ESE daylight
19 Jun - 08:13:34 10° W 08:25:08 30° SW 08:32:42 10° SSE daylight
20 Jun - 00:21:35 10° S 00:36:04 27° SE 00:50:08 10° E visible
20 Jun - 02:33:11 10° SW 02:51:42 47° SSE 03:06:43 10° E visible
20 Jun - 04:49:20 10° WSW 05:07:51 54° S 05:20:17 10° ESE daylight
20 Jun - 07:07:45 10° W 07:22:27 40° SSW 07:31:44 10° SE daylight
20 Jun - 09:28:56 10° WSW 09:34:22 14° SW 09:38:46 10° SSW daylight
20 Jun - 23:21:02 10° S 23:32:21 19° SE 23:44:00 10° E visible
21 Jun - 01:29:46 10° SW 01:47:17 41° SSE 02:03:06 10° E visible
21 Jun - 03:44:26 10° WSW 04:03:36 55° S 04:17:45 10° ESE daylight
21 Jun - 06:02:06 10° W 06:19:12 48° SSW 06:30:11 10° SE daylight
21 Jun - 08:21:41 10° W 08:32:18 24° SW 08:39:40 10° S daylight
21 Jun - 22:24:13 10° SE 22:29:01 11° SE 22:33:59 10° ESE visible
22 Jun - 00:27:13 10° SSW 00:43:02 34° SSE 00:58:48 10° E visible
22 Jun - 02:40:05 10° SW 02:59:04 52° SSE 03:14:44 10° E visible
22 Jun - 04:56:43 10° WSW 05:15:23 54° S 05:28:09 10° ESE daylight
22 Jun - 07:15:28 10° W 07:29:43 35° SSW 07:39:06 10° SSE daylight
22 Jun - 23:25:43 10° S 23:39:07 26° SE 23:53:28 10° E visible
23 Jun - 01:36:24 10° SW 01:54:28 47° SSE 02:11:11 10° E visible
23 Jun - 03:51:43 10° WSW 04:11:05 57° S 04:25:38 10° ESE daylight
23 Jun - 06:09:40 10° W 06:26:33 44° SSW 06:37:46 10° SE daylight
23 Jun - 08:30:18 10° W 08:39:15 19° SW 08:45:59 10° S daylight
23 Jun - 22:25:49 10° SSE 22:35:39 18° SE 22:46:28 10° E visible
24 Jun - 00:33:30 10° SSW 00:50:01 41° SSE 01:07:01 10° E visible
24 Jun - 02:47:13 10° WSW 03:06:27 56° S 03:22:37 10° ESE visible
24 Jun - 05:04:11 10° W 05:22:47 52° SSW 05:35:50 10° SE daylight
24 Jun - 07:23:24 10° W 07:36:46 29° SW 07:46:04 10° SSE daylight
